Simultaneous Nadir Overpasses (SNOs) Predictions

Prediction of SNOs between GOES-16 and METOP-B Satellite Orbit:

Table of predicted SNOs for the next 14.0 days since TLE Epoch: 2/7/2020
Index Date Time (GOES-16) GOES-16 Lat,Lon METOP-B Lat,Lon Distance(km) Time Diff (sec)
1 02/08/2020 02:47:19 0.02, -75.19 -0.91, -79.42 481.36 80
2 02/09/2020 02:29:20 0.01, -75.20 0.18, -74.42 88.16 80
3 02/10/2020 14:45:32 -0.01, -75.22 0.83, -78.98 429.20 80
4 02/11/2020 14:27:34 -0.01, -75.23 -0.31, -74.00 140.82 80
5 02/13/2020 02:43:54 0.02, -75.23 -0.76, -78.58 383.22 80
6 02/14/2020 02:25:55 0.01, -75.24 0.38, -73.60 187.09 80
7 02/15/2020 14:42:08 -0.02, -75.27 0.63, -78.16 329.38 80
8 02/16/2020 14:24:09 -0.02, -75.28 -0.51, -73.17 241.21 80
9 02/18/2020 02:40:30 0.03, -75.29 -0.55, -77.76 281.93 80
10 02/19/2020 02:22:31 0.02, -75.31 0.60, -72.77 288.93 80
11 02/20/2020 14:38:43 -0.03, -75.35 0.42, -77.33 226.70 80
12 02/21/2020 14:20:45 -0.02, -75.37 -0.72, -72.35 344.72 80




NCC Satellite Simultaneous Nadir Overpasses (SNOs) Prediction Service
